Weather History for KAPN - November, 2010

Change the Weather History Date:

Monday, November 8, 2010

  Actual Average Record
Temperature  
Mean Temperature 39 °F 38 °F  
Max Temperature 53 °F 46 °F 69 °F (1931)
Min Temperature 25 °F 30 °F 12 °F (1976)
Degree Days  
Heating Degree Days 26 27  
Month to date heating degree days 223 204  
Since 1 July heating degree days 1031 1148  
Moisture  
Dew Point 33 °F    
Average Humidity 77    
Maximum Humidity 100    
Minimum Humidity 54    
Precipitation  
Precipitation 0.00 in 0.07 in 0.75 in (2011)
Month to date precipitation 0.11 0.58  
Year to date precipitation 24.66 24.89  
Snow  
Snow 0.00 in 0.10 in 4.90 in (1995)
Month to date snowfall 0.1 1.0  
Since 1 July snowfall 0.1 1.4  
Snow Depth 0.00 in    
Sea Level Pressure  
Sea Level Pressure 30.06 in    
Wind  
Wind Speed 3 mph (ESE)    
Max Wind Speed 12 mph    
Max Gust Speed 17 mph    
Visibility 5 miles    
Events Fog    
T = Trace of Precipitation, MM = Missing Value Source: NWS Daily Summary

Daily Weather History Graph

Daily Weather History Graph

Search for Another Location

Airport or City:

Trip Planner

Search our weather history database for the weather conditions in past years. The results will help you decide how hot, cold, wet, or windy it might be!

Date:

Astronomy

Nov. 08, 2010 Rise Set
Actual Time 7:22 AM EST 5:12 PM EST
Civil Twilight 6:51 AM EST 5:44 PM EST
Nautical Twilight 6:16 AM EST 6:19 PM EST
Astronomical Twilight 5:41 AM EST 6:53 PM EST
Moon 10:17 AM EST (11/8) 7:00 PM EST (11/8)
Length of Visible Light 10h 52m
Length of Day
9h 50m
Waxing Crescent, 8% of the Moon is Illuminated
Nov 8
Waxing Crescent
Nov 13
First Quarter
Nov 21
Full
Nov 28
Last Quarter
Dec 5
New

Hourly Weather History & Observations

Time (EST) Temp. Windchill Dew Point Humidity Pressure Visibility Wind Dir Wind Speed Gust Speed Precip Events Conditions
12:54 AM 28.0 °F - 26.1 °F 92% 30.09 in 5.0 mi Calm Calm - N/A   Clear
1:54 AM 28.0 °F - 26.1 °F 92% 30.07 in 9.0 mi Calm Calm - N/A   Clear
2:54 AM 28.9 °F - 27.0 °F 92% 30.08 in 10.0 mi Calm Calm - N/A   Clear
3:54 AM 27.0 °F - 25.0 °F 92% 30.07 in 10.0 mi Calm Calm - N/A   Clear
4:54 AM 28.0 °F - 25.0 °F 88% 30.08 in 10.0 mi Calm Calm - N/A   Clear
5:54 AM 26.1 °F - 24.1 °F 92% 30.08 in 9.0 mi Calm Calm - N/A   Clear
6:54 AM 25.0 °F - 23.0 °F 92% 30.09 in 10.0 mi Calm Calm - N/A   Clear
7:12 AM 24.8 °F - 23.0 °F 93% 30.06 in 9.0 mi Calm Calm - N/A   Partly Cloudy
7:54 AM 27.0 °F - 24.1 °F 89% 30.09 in 10.0 mi Calm Calm - N/A   Clear
8:54 AM 35.1 °F - 30.9 °F 85% 30.09 in 9.0 mi Calm Calm - N/A   Clear
9:54 AM 44.1 °F - 39.0 °F 82% 30.09 in 8.0 mi Calm Calm - N/A   Clear
10:54 AM 48.9 °F - 39.0 °F 69% 30.09 in 10.0 mi SE 8.1 mph - N/A   Clear
11:54 AM 51.1 °F - 39.9 °F 66% 30.08 in 10.0 mi SE 8.1 mph - N/A   Clear
12:54 PM 52.0 °F - 37.0 °F 57% 30.06 in 10.0 mi East 6.9 mph - N/A   Partly Cloudy
1:54 PM 51.1 °F - 39.0 °F 63% 30.05 in 10.0 mi East 9.2 mph - N/A   Clear
2:54 PM 51.1 °F - 36.0 °F 56% 30.05 in 10.0 mi East 6.9 mph - N/A   Clear
3:54 PM 51.1 °F - 39.0 °F 63% 30.05 in 10.0 mi East 6.9 mph - N/A   Clear
4:54 PM 46.0 °F 42.5 °F 41.0 °F 83% 30.05 in 9.0 mi East 6.9 mph - N/A   Clear
5:54 PM 43.0 °F 39.5 °F 39.0 °F 86% 30.07 in 8.0 mi East 5.8 mph - N/A   Clear
6:54 PM 39.9 °F 36.7 °F 39.0 °F 97% 30.06 in 5.0 mi East 4.6 mph - N/A   Clear
7:39 PM 39.2 °F - 37.4 °F 93% 30.04 in 1.5 mi Calm Calm - N/A   Clear
7:54 PM 39.9 °F 37.8 °F 37.9 °F 93% 30.07 in 0.8 mi East 3.5 mph - N/A   Clear
8:08 PM 35.6 °F 32.8 °F 35.6 °F 100% 30.04 in 0.2 mi East 3.5 mph - N/A Fog Fog
8:19 PM 33.8 °F 29.6 °F 33.8 °F 100% 30.04 in 0.5 mi East 4.6 mph - N/A Fog Fog
8:30 PM 35.6 °F 31.7 °F 33.8 °F 93% 30.04 in 1.2 mi East 4.6 mph - N/A   Partly Cloudy
8:40 PM 37.4 °F 34.9 °F 37.4 °F 100% 30.05 in 2.5 mi SE 3.5 mph - N/A   Clear
8:54 PM 37.9 °F 34.4 °F 37.0 °F 97% 30.07 in 1.8 mi ESE 4.6 mph - N/A   Clear
9:02 PM 37.4 °F 33.8 °F 35.6 °F 93% 30.05 in 3.0 mi ESE 4.6 mph - N/A   Clear
9:25 PM 37.4 °F 33.8 °F 37.4 °F 100% 30.05 in 1.5 mi East 4.6 mph - N/A   Clear
9:31 PM 35.6 °F 31.7 °F 35.6 °F 100% 30.04 in 0.2 mi East 4.6 mph - N/A Fog Fog
9:50 PM 33.8 °F 30.8 °F 33.8 °F 100% 30.04 in 0.2 mi East 3.5 mph - N/A Fog Fog
9:54 PM 35.1 °F 32.2 °F 35.1 °F 100% 30.06 in 0.2 mi ESE 3.5 mph - N/A Fog Fog
10:38 PM 33.8 °F - 33.8 °F 100% 30.04 in 1.0 mi Calm Calm - N/A   Mist
10:46 PM 32.0 °F - 32.0 °F 100% 30.04 in 0.2 mi Calm Calm - N/A Fog Fog
10:54 PM 32.0 °F - 30.9 °F 96% 30.06 in 0.5 mi Calm Calm - N/A Fog Fog
11:16 PM 30.2 °F - 30.2 °F 100% 30.05 in 0.2 mi Calm Calm - N/A Fog Light Freezing Fog
11:54 PM 30.9 °F - 30.0 °F 96% 30.08 in 0.2 mi Calm Calm - N/A Fog Light Freezing Fog